Regional Weather Roundup
Issued by NWS Sterling, VA

Home | Current Version | Previous Version | Text Only | Print | Product List | Glossary Off
Versions: 1 2 3 4 5 6 7 8 9 10 11 12 13 14 15 16 17 18 19 20 21 22 23 24 25 26 27 28 29 30 31 32 33 34 35 36 37 38 39 40 41 42 43 44 45 46 47 48 49 50

000
ASUS41 KLWX 200911
RWRLWX

REGIONAL WEATHER ROUNDUP
NATIONAL WEATHER SERVICE BALTIMORE MD/WASHINGTON DC
400 AM EST TUE FEB 20 2018

Note: "FAIR" indicates few or no clouds below 12,000 feet
with no significant weather and/or obstructions to visibility.
 TC=TEMPERATURE CELSIUS

 * =Non NWS site. Station does not report precipitation (e.g. rain,
    snow, etc.), thunder, or fog.

DCZ001-MDZ009-015-VAZ040>042-051-053>054-201000-
WASHINGTON METRO

CITY           SKY/WX    TMP DP  RH WIND       PRES   REMARKS
WASHINGTON NAT CLOUDY    53  52  96 SW13      30.33S
DULLES         CLOUDY    50  50 100 S15       30.30F
ANDREWS AFB    CLOUDY    51  51  99 S12       30.32R FOG
FT BELVOIR     CLOUDY    51  50  95 S5        30.34R
QUANTICO       CLOUDY    50  49  96 SW9       30.35S
COLLEGE PARK*  CLOUDY    50  49  97 S6        30.32S
LEESBURG*      CLOUDY    46  46 100 SW5       30.31S FOG
MANASSAS*      CLOUDY    52  50  93 S7        30.33S
GAITHERSBURG*  CLOUDY    49  49 100 CALM      30.31S FOG

$$

MDZ006>007-011-014-201000-
BALTIMORE METRO

CITY           SKY/WX    TMP DP  RH WIND       PRES   REMARKS
BWI AIRPORT    CLOUDY    50  50 100 SW8       30.31S FOG
MD SCIENCE CTR   N/A     47  47 100 MISG      30.32F
MARTIN STATE   FOG       45  45 100 SE3       30.33F VSB 1/4
ANNAPOLIS      FOG       44  44 100 SE5       30.32S VSB 1/4
FORT MEADE*    CLOUDY    50  50 100 SW8       30.34S

$$

MDZ012-015-019>023-201000-
MARYLAND EASTERN SHORE

CITY           SKY/WX    TMP DP  RH WIND       PRES   REMARKS
OCEAN CITY     FOG       51  51 100 S3        30.38S VSB 1/2
SALISBURY      CLOUDY    58  58 100 SW10      30.37S FOG
BAY BRIDGE AP* CLOUDY    52  52 100 S9        30.33S FOG
CAMBRIDGE*     CLOUDY    54  54 100 S9        30.35S FOG
EASTON*        CLOUDY    55  53  95 SW9       30.37S FOG

$$

MDZ017>025-201000-
SOUTHERN MARYLAND

CITY           SKY/WX    TMP DP  RH WIND       PRES   REMARKS
PATUXENT RIVER CLOUDY    55  55 100 SW10      30.35S FOG
ST INIGOES     CLOUDY    54  37  52 S8        30.36S HAZE
LEONARDTOWN*   CLOUDY    54  52  94 SW10G16   30.37S

$$

MDZ003>005-201000-
NORTH CENTRAL MARYLAND

CITY           SKY/WX    TMP DP  RH WIND       PRES   REMARKS
FREDERICK*     CLOUDY    46  46 100 SW5       30.33S FOG
HAGERSTOWN APT FAIR      42  40  92 NW5       30.26S FOG
WESTMINSTER*   FOG       48  48 100 S7        30.28F VSB 1/2

$$

MDZ501>502-201000-
WESTERN MARYLAND

CITY           SKY/WX    TMP DP  RH WIND       PRES   REMARKS
OAKLAND*       FAIR      55  48  76 SW8       30.25S
CUMBERLAND*    FAIR      41  37  87 CALM      30.30S

$$

VAZ025>031-201000-
SHENANDOAH VALLEY

CITY           SKY/WX    TMP DP  RH WIND       PRES   REMARKS
WINCHESTER*    FAIR      52  48  87 SW8       30.28S
FRONT ROYAL*   FAIR      54  50  87 SW10G16   30.28S
LURAY*         FAIR      52  50  93 SW10      30.31S
NEW MARKET*    CLOUDY    52  50  95 SW8       30.30S
STAUNTON*      MOCLDY    48  48  98 CALM      30.35F FOG
WAYNESBORO*    MOCLDY    46  46  99 CALM      30.33F VSB 3/4

$$

WVZ021-048>050-054>055-201000-
EASTERN WEST VIRGINIA PANHANDLE

CITY           SKY/WX    TMP DP  RH WIND       PRES   REMARKS
MARTINSBURG    FAIR      40  39  97 CALM      30.26R FOG
PETERSBURG*    FAIR      44  43  97 W3        30.26R

$$

VAZ036>039-050-201000-
CENTRAL FOOTHILLS

CITY           SKY/WX    TMP DP  RH WIND       PRES   REMARKS
CHARLOTTESVILL CLOUDY    50  49  96 S10       30.33S FOG
CULPEPER*      CLOUDY    52  50  91 SW12      30.33F
ORANGE*        CLOUDY    50  48  93 SW8       30.34S
GORDONSVILLE*  CLOUDY    51  51 100 SW9       30.34S
WARRENTON*     CLOUDY    53  49  86 S8        30.32F

$$

VAZ055>057-201000-
NORTH AND CENTRAL PIEDMONT

CITY           SKY/WX    TMP DP  RH WIND       PRES   REMARKS
FREDERICKSBRG* CLOUDY    53  53 100 SW9       30.34F
STAFFORD*      CLOUDY    53  53 100 S6        30.38S

$$

NCZ024-NYZ072-PAZ021-071-VAZ022-071-201000-
OTHER REGIONAL OBSERVATIONS

CITY           SKY/WX    TMP DP  RH WIND       PRES   REMARKS
NEW YORK CITY  CLOUDY    50  49  96 W8G18     30.30F FOG
PHILADELPHIA   FOG       48  48 100 SW7       30.32F VSB 1/4
PITTSBURGH     MOCLDY    62  52  69 SW10      30.15R
ROANOKE        FOG       48  48 100 CALM      30.39F VSB 1/4
RICHMOND       CLOUDY    53  53 100 S6        30.38R FOG
RALEIGH        FOG       51  51 100 CALM      30.41F VSB 1/4

$$

ANZ530>537-201000-
MARINE OBSERVATIONS

STATION/POSITION TIME  TEMP    WIND        PRES
                       AIR SEA DIR/SP/G
                 (UTC) (F)     (DEG/KT/KT) (MB)
THOMAS PT LIGHT  0900   47 38  190/ 13/ 14   N/A
BALT KEY BRIDGE  0842   51     220/  5/  7 1026.6F
COVE POINT       0842   51     200/  8/ 11 1028.3S
LEWISETTA        0842   56 45  240/  9/ 11 1028.2F
SOLOMONS ISLAND  0842   51 41  230/  8/ 10 1027.6R

$$




USA.gov is the U.S. government's official web portal to all federal, state and local government web resources and services.